Year,Month,Day,Hour,Minute,Value (Times are PST for temperature in C)
2020,08,05,00,00,18.10
2020,08,05,00,01,18.10
2020,08,05,00,02,18.10
2020,08,05,00,03,18.10
2020,08,05,00,04,18.10
2020,08,05,00,05,18.10
2020,08,05,00,06,18.10
2020,08,05,00,07,18.10
2020,08,05,00,08,18.10
2020,08,05,00,09,18.10
2020,08,05,00,10,18.10
2020,08,05,00,11,18.10
2020,08,05,00,12,18.10
2020,08,05,00,13,18.10
2020,08,05,00,14,18.00
2020,08,05,00,15,18.00
2020,08,05,00,16,18.00
2020,08,05,00,17,17.90
2020,08,05,00,18,17.90
2020,08,05,00,19,17.90
2020,08,05,00,20,17.80
2020,08,05,00,21,17.80
2020,08,05,00,22,17.80
2020,08,05,00,23,17.80
2020,08,05,00,24,17.80
2020,08,05,00,25,17.80
2020,08,05,00,26,17.80
2020,08,05,00,27,17.80
2020,08,05,00,28,17.80
2020,08,05,00,29,17.70
2020,08,05,00,30,17.70
2020,08,05,00,31,17.70
2020,08,05,00,32,17.70
2020,08,05,00,33,17.70
2020,08,05,00,34,17.70
2020,08,05,00,35,17.70
2020,08,05,00,36,17.70
2020,08,05,00,37,17.60
2020,08,05,00,38,17.60
2020,08,05,00,39,17.60
2020,08,05,00,40,17.60
2020,08,05,00,41,17.60
2020,08,05,00,42,17.60
2020,08,05,00,43,17.50
2020,08,05,00,44,17.50
2020,08,05,00,45,17.50
2020,08,05,00,46,17.50
2020,08,05,00,47,17.40
2020,08,05,00,48,17.40
2020,08,05,00,49,17.40
2020,08,05,00,50,17.40
2020,08,05,00,51,17.40
2020,08,05,00,52,17.30
2020,08,05,00,53,17.30
2020,08,05,00,54,17.30
2020,08,05,00,55,17.30
2020,08,05,00,56,17.30
2020,08,05,00,57,17.30
2020,08,05,00,58,17.20
2020,08,05,00,59,17.20
2020,08,05,01,00,17.20
2020,08,05,01,01,17.20
2020,08,05,01,02,17.20
2020,08,05,01,03,17.20
2020,08,05,01,04,17.10
2020,08,05,01,05,17.10
2020,08,05,01,06,17.10
2020,08,05,01,07,17.20
2020,08,05,01,08,17.20
2020,08,05,01,09,17.20
2020,08,05,01,10,17.30
2020,08,05,01,11,17.40
2020,08,05,01,12,17.50
2020,08,05,01,13,17.50
2020,08,05,01,14,17.60
2020,08,05,01,15,17.70
2020,08,05,01,16,17.70
2020,08,05,01,17,17.70
2020,08,05,01,18,17.70
2020,08,05,01,19,17.70
2020,08,05,01,20,17.60
2020,08,05,01,21,17.60
2020,08,05,01,22,17.60
2020,08,05,01,23,17.60
2020,08,05,01,24,17.60
2020,08,05,01,25,17.60
2020,08,05,01,26,17.50
2020,08,05,01,27,17.50
2020,08,05,01,28,17.50
2020,08,05,01,29,17.60
2020,08,05,01,30,17.60
2020,08,05,01,31,17.50
2020,08,05,01,32,17.50
2020,08,05,01,33,17.40
2020,08,05,01,34,17.40
2020,08,05,01,35,17.30
2020,08,05,01,36,17.30
2020,08,05,01,37,17.30
2020,08,05,01,38,17.20
2020,08,05,01,39,17.20
2020,08,05,01,40,17.20
2020,08,05,01,41,17.10
2020,08,05,01,42,17.10
2020,08,05,01,43,17.10
2020,08,05,01,44,17.10
2020,08,05,01,45,17.00
2020,08,05,01,46,17.00
2020,08,05,01,47,17.00
2020,08,05,01,48,16.90
2020,08,05,01,49,16.90
2020,08,05,01,50,16.90
2020,08,05,01,51,16.90
2020,08,05,01,52,16.90
2020,08,05,01,53,16.80
2020,08,05,01,54,16.80
2020,08,05,01,55,16.80
2020,08,05,01,56,16.80
2020,08,05,01,57,16.80
2020,08,05,01,58,16.70
2020,08,05,01,59,16.70
2020,08,05,02,00,16.70
2020,08,05,02,01,16.70
2020,08,05,02,02,16.60
2020,08,05,02,03,16.60
2020,08,05,02,04,16.60
2020,08,05,02,05,16.60
2020,08,05,02,06,16.60
2020,08,05,02,07,16.50
2020,08,05,02,08,16.50
2020,08,05,02,09,16.50
2020,08,05,02,10,16.50
2020,08,05,02,11,16.50
2020,08,05,02,12,16.40
2020,08,05,02,13,16.40
2020,08,05,02,14,16.40
2020,08,05,02,15,16.40
2020,08,05,02,16,16.40
2020,08,05,02,17,16.40
2020,08,05,02,18,16.40
2020,08,05,02,19,16.40
2020,08,05,02,20,16.40
2020,08,05,02,21,16.40
2020,08,05,02,22,16.40
2020,08,05,02,23,16.40
2020,08,05,02,24,16.40
2020,08,05,02,25,16.40
2020,08,05,02,26,16.30
2020,08,05,02,27,16.30
2020,08,05,02,28,16.40
2020,08,05,02,29,16.40
2020,08,05,02,30,16.40
2020,08,05,02,31,16.40
2020,08,05,02,32,16.40
2020,08,05,02,33,16.40
2020,08,05,02,34,16.40
2020,08,05,02,35,16.40
2020,08,05,02,36,16.40
2020,08,05,02,37,16.40
2020,08,05,02,38,16.40
2020,08,05,02,39,16.40
2020,08,05,02,40,16.40
2020,08,05,02,41,16.40
2020,08,05,02,42,16.40
2020,08,05,02,43,16.30
2020,08,05,02,44,16.30
2020,08,05,02,45,16.30
2020,08,05,02,46,16.30
2020,08,05,02,47,16.30
2020,08,05,02,48,16.30
2020,08,05,02,49,16.30
2020,08,05,02,50,16.30
2020,08,05,02,51,16.30
2020,08,05,02,52,16.30
2020,08,05,02,53,16.30
2020,08,05,02,54,16.30
2020,08,05,02,55,16.40
2020,08,05,02,56,16.40
2020,08,05,02,57,16.40
2020,08,05,02,58,16.40
2020,08,05,02,59,16.40
2020,08,05,03,00,16.40
2020,08,05,03,01,16.40
2020,08,05,03,02,16.40
2020,08,05,03,03,16.40
2020,08,05,03,04,16.40
2020,08,05,03,05,16.40
2020,08,05,03,06,16.40
2020,08,05,03,07,16.40
2020,08,05,03,08,16.40
2020,08,05,03,09,16.40
2020,08,05,03,10,16.40
2020,08,05,03,11,16.40
2020,08,05,03,12,16.40
2020,08,05,03,13,16.40
2020,08,05,03,14,16.40
2020,08,05,03,15,16.40
2020,08,05,03,16,16.40
2020,08,05,03,17,16.40
2020,08,05,03,18,16.40
2020,08,05,03,19,16.30
2020,08,05,03,20,16.30
2020,08,05,03,21,16.30
2020,08,05,03,22,16.30
2020,08,05,03,23,16.30
2020,08,05,03,24,16.30
2020,08,05,03,25,16.20
2020,08,05,03,26,16.20
2020,08,05,03,27,16.20
2020,08,05,03,28,16.20
2020,08,05,03,29,16.20
2020,08,05,03,30,16.20
2020,08,05,03,31,16.10
2020,08,05,03,32,16.10
2020,08,05,03,33,16.10
2020,08,05,03,34,16.10
2020,08,05,03,35,16.10
2020,08,05,03,36,16.00
2020,08,05,03,37,16.00
2020,08,05,03,38,16.00
2020,08,05,03,39,16.00
2020,08,05,03,40,16.00
2020,08,05,03,41,16.00
2020,08,05,03,42,16.00
2020,08,05,03,43,15.90
2020,08,05,03,44,15.90
2020,08,05,03,45,15.90
2020,08,05,03,46,15.90
2020,08,05,03,47,15.90
2020,08,05,03,48,15.90
2020,08,05,03,49,15.90
2020,08,05,03,50,15.90
2020,08,05,03,51,15.90
2020,08,05,03,52,15.80
2020,08,05,03,53,15.80
2020,08,05,03,54,15.80
2020,08,05,03,55,15.80
2020,08,05,03,56,15.80
2020,08,05,03,57,15.80
2020,08,05,03,58,15.80
2020,08,05,03,59,15.80
2020,08,05,04,00,15.80
2020,08,05,04,01,15.80
2020,08,05,04,02,15.80
2020,08,05,04,03,15.80
2020,08,05,04,04,15.80
2020,08,05,04,05,15.80
2020,08,05,04,06,15.80
2020,08,05,04,07,15.80
2020,08,05,04,08,15.70
2020,08,05,04,09,15.70
2020,08,05,04,10,15.70
2020,08,05,04,11,15.70
2020,08,05,04,12,15.70
2020,08,05,04,13,15.70
2020,08,05,04,14,15.70
2020,08,05,04,15,15.70
2020,08,05,04,16,15.60
2020,08,05,04,17,15.60
2020,08,05,04,18,15.60
2020,08,05,04,19,15.60
2020,08,05,04,20,15.60
2020,08,05,04,21,15.60
2020,08,05,04,22,15.60
2020,08,05,04,23,15.60
2020,08,05,04,24,15.60
2020,08,05,04,25,15.60
2020,08,05,04,26,15.50
2020,08,05,04,27,15.50
2020,08,05,04,28,15.50
2020,08,05,04,29,15.50
2020,08,05,04,30,15.50
2020,08,05,04,31,15.50
2020,08,05,04,32,15.50
2020,08,05,04,33,15.50
2020,08,05,04,34,15.50
2020,08,05,04,35,15.50
2020,08,05,04,36,15.50
2020,08,05,04,37,15.50
2020,08,05,04,38,15.50
2020,08,05,04,39,15.50
2020,08,05,04,40,15.50
2020,08,05,04,41,15.40
2020,08,05,04,42,15.40
2020,08,05,04,43,15.40
2020,08,05,04,44,15.40
2020,08,05,04,45,15.40
2020,08,05,04,46,15.40
2020,08,05,04,47,15.40
2020,08,05,04,48,15.40
2020,08,05,04,49,15.40
2020,08,05,04,50,15.40
2020,08,05,04,51,15.40
2020,08,05,04,52,15.40
2020,08,05,04,53,15.40
2020,08,05,04,54,15.40
2020,08,05,04,55,15.40
2020,08,05,04,56,15.40
2020,08,05,04,57,15.40
2020,08,05,04,58,15.40
2020,08,05,04,59,15.40
2020,08,05,05,00,15.40
2020,08,05,05,01,15.40
2020,08,05,05,02,15.40
2020,08,05,05,03,15.40
2020,08,05,05,04,15.40
2020,08,05,05,05,15.40
2020,08,05,05,06,15.40
2020,08,05,05,07,15.40
2020,08,05,05,08,15.40
2020,08,05,05,09,15.40
2020,08,05,05,10,15.40
2020,08,05,05,11,15.40
2020,08,05,05,12,15.40
2020,08,05,05,13,15.40
2020,08,05,05,14,15.40
2020,08,05,05,15,15.40
2020,08,05,05,16,15.40
2020,08,05,05,17,15.40
2020,08,05,05,18,15.40
2020,08,05,05,19,15.40
2020,08,05,05,20,15.30
2020,08,05,05,21,15.30
2020,08,05,05,22,15.30
2020,08,05,05,23,15.30
2020,08,05,05,24,15.30
2020,08,05,05,25,15.20
2020,08,05,05,26,15.20
2020,08,05,05,27,15.20
2020,08,05,05,28,15.10
2020,08,05,05,29,15.10
2020,08,05,05,30,15.00
2020,08,05,05,31,15.00
2020,08,05,05,32,15.00
2020,08,05,05,33,15.00
2020,08,05,05,34,15.00
2020,08,05,05,35,15.00
2020,08,05,05,36,15.00
2020,08,05,05,37,15.00
2020,08,05,05,38,15.00
2020,08,05,05,39,15.00
2020,08,05,05,40,15.00
2020,08,05,05,41,15.00
2020,08,05,05,42,15.00
2020,08,05,05,43,15.00
2020,08,05,05,44,15.00
2020,08,05,05,45,15.00
2020,08,05,05,46,15.00
2020,08,05,05,47,15.00
2020,08,05,05,48,15.00
2020,08,05,05,49,15.00
2020,08,05,05,50,15.00
2020,08,05,05,51,15.00
2020,08,05,05,52,15.00
2020,08,05,05,53,15.00
2020,08,05,05,54,15.00
2020,08,05,05,55,15.00
2020,08,05,05,56,15.00
2020,08,05,05,57,15.00
2020,08,05,05,58,15.00
2020,08,05,05,59,15.00
2020,08,05,06,00,14.90
2020,08,05,06,01,14.90
2020,08,05,06,02,14.90
2020,08,05,06,03,14.90
2020,08,05,06,04,14.90
2020,08,05,06,05,14.90
2020,08,05,06,06,14.90
2020,08,05,06,07,14.90
2020,08,05,06,08,14.90
2020,08,05,06,09,14.90
2020,08,05,06,10,14.90
2020,08,05,06,11,14.90
2020,08,05,06,12,14.90
2020,08,05,06,13,14.90
2020,08,05,06,14,14.90
2020,08,05,06,15,14.90
2020,08,05,06,16,14.90
2020,08,05,06,17,14.90
2020,08,05,06,18,14.90
2020,08,05,06,19,14.90
2020,08,05,06,20,14.90
2020,08,05,06,21,14.90
2020,08,05,06,22,14.90
2020,08,05,06,23,14.90
2020,08,05,06,24,14.90
2020,08,05,06,25,14.90
2020,08,05,06,26,14.90
2020,08,05,06,27,14.90
2020,08,05,06,28,14.90
2020,08,05,06,29,14.90
2020,08,05,06,30,14.90
2020,08,05,06,31,14.90
2020,08,05,06,32,14.90
2020,08,05,06,33,15.00
2020,08,05,06,34,15.00
2020,08,05,06,35,14.90
2020,08,05,06,36,14.90
2020,08,05,06,37,14.90
2020,08,05,06,38,15.00
2020,08,05,06,39,15.00
2020,08,05,06,40,15.00
2020,08,05,06,41,15.00
2020,08,05,06,42,15.00
2020,08,05,06,43,15.00
2020,08,05,06,44,15.00
2020,08,05,06,45,15.00
2020,08,05,06,46,15.00
2020,08,05,06,47,15.00
2020,08,05,06,48,15.00
2020,08,05,06,49,15.10
2020,08,05,06,50,15.20
2020,08,05,06,51,15.20
2020,08,05,06,52,15.30
2020,08,05,06,53,15.30
2020,08,05,06,54,15.30
2020,08,05,06,55,15.40
2020,08,05,06,56,15.40
2020,08,05,06,57,15.50
2020,08,05,06,58,15.50
2020,08,05,06,59,15.50
2020,08,05,07,00,15.60
2020,08,05,07,01,15.60
2020,08,05,07,02,15.60
2020,08,05,07,03,15.70
2020,08,05,07,04,15.70
2020,08,05,07,05,15.70
2020,08,05,07,06,15.80
2020,08,05,07,07,15.80
2020,08,05,07,08,15.90
2020,08,05,07,09,15.90
2020,08,05,07,10,16.00
2020,08,05,07,11,16.00
2020,08,05,07,12,16.10
2020,08,05,07,13,16.20
2020,08,05,07,14,16.20
2020,08,05,07,15,16.30
2020,08,05,07,16,16.30
2020,08,05,07,17,16.40
2020,08,05,07,18,16.40
2020,08,05,07,19,16.50
2020,08,05,07,20,16.60
2020,08,05,07,21,16.70
2020,08,05,07,22,16.80
2020,08,05,07,23,16.90
2020,08,05,07,24,17.00
2020,08,05,07,25,17.10
2020,08,05,07,26,17.20
2020,08,05,07,27,17.30
2020,08,05,07,28,17.40
2020,08,05,07,29,17.50
2020,08,05,07,30,17.60
2020,08,05,07,31,17.60
2020,08,05,07,32,17.70
2020,08,05,07,33,17.80
2020,08,05,07,34,17.90
2020,08,05,07,35,18.10
2020,08,05,07,36,18.10
2020,08,05,07,37,18.20
2020,08,05,07,38,18.30
2020,08,05,07,39,18.40
2020,08,05,07,40,18.50
2020,08,05,07,41,18.60
2020,08,05,07,42,18.70
2020,08,05,07,43,18.80
2020,08,05,07,44,18.90
2020,08,05,07,45,19.00
2020,08,05,07,46,19.20
2020,08,05,07,47,19.30
2020,08,05,07,48,19.40
2020,08,05,07,49,19.60
2020,08,05,07,50,19.70
2020,08,05,07,51,19.80
2020,08,05,07,52,20.00
2020,08,05,07,53,20.10
2020,08,05,07,54,20.20
2020,08,05,07,55,20.40
2020,08,05,07,56,20.40
2020,08,05,07,57,20.50
2020,08,05,07,58,20.60
2020,08,05,07,59,20.60
2020,08,05,08,00,20.70
2020,08,05,08,01,20.70
2020,08,05,08,02,20.70
2020,08,05,08,03,20.70
2020,08,05,08,04,20.70
2020,08,05,08,05,20.70
2020,08,05,08,06,20.70
2020,08,05,08,07,20.70
2020,08,05,08,08,20.70
2020,08,05,08,09,20.70
2020,08,05,08,10,20.70
2020,08,05,08,11,20.60
2020,08,05,08,12,20.60
2020,08,05,08,13,20.50
2020,08,05,08,14,20.50
2020,08,05,08,15,20.50
2020,08,05,08,16,20.40
2020,08,05,08,17,20.40
2020,08,05,08,18,20.40
2020,08,05,08,19,20.40
2020,08,05,08,20,20.40
2020,08,05,08,21,20.50
2020,08,05,08,22,20.50
2020,08,05,08,23,20.60
2020,08,05,08,24,20.70
2020,08,05,08,25,20.80
2020,08,05,08,26,20.90
2020,08,05,08,27,20.90
2020,08,05,08,28,21.00
2020,08,05,08,29,21.10
2020,08,05,08,30,21.10
2020,08,05,08,31,21.20
2020,08,05,08,32,21.20
2020,08,05,08,33,21.20
2020,08,05,08,34,21.20
2020,08,05,08,35,21.20
2020,08,05,08,36,21.20
2020,08,05,08,37,21.30
2020,08,05,08,38,21.30
2020,08,05,08,39,21.20
2020,08,05,08,40,21.20
2020,08,05,08,41,21.10
2020,08,05,08,42,21.00
2020,08,05,08,43,20.90
2020,08,05,08,44,20.90
2020,08,05,08,45,20.80
2020,08,05,08,46,20.80
2020,08,05,08,47,20.70
2020,08,05,08,48,20.70
2020,08,05,08,49,20.60
2020,08,05,08,50,20.60
2020,08,05,08,51,20.60
2020,08,05,08,52,20.60
2020,08,05,08,53,20.70
2020,08,05,08,54,20.70
2020,08,05,08,55,20.70
2020,08,05,08,56,20.70
2020,08,05,08,57,20.80
2020,08,05,08,58,20.80
2020,08,05,08,59,20.90
2020,08,05,09,00,20.90
2020,08,05,09,01,21.00
2020,08,05,09,02,21.00
2020,08,05,09,03,21.10
2020,08,05,09,04,21.10
2020,08,05,09,05,21.10
2020,08,05,09,06,21.20
2020,08,05,09,07,21.20
2020,08,05,09,08,21.20
2020,08,05,09,09,21.20
2020,08,05,09,10,21.20
2020,08,05,09,11,21.20
2020,08,05,09,12,21.20
2020,08,05,09,13,21.20
2020,08,05,09,14,21.20
2020,08,05,09,15,21.20
2020,08,05,09,16,21.30
2020,08,05,09,17,21.30
2020,08,05,09,18,21.30
2020,08,05,09,19,21.40
2020,08,05,09,20,21.40
2020,08,05,09,21,21.50
2020,08,05,09,22,21.60
2020,08,05,09,23,21.60
2020,08,05,09,24,21.60
2020,08,05,09,25,21.60
2020,08,05,09,26,21.60
2020,08,05,09,27,21.60
2020,08,05,09,28,21.70
2020,08,05,09,29,21.70
2020,08,05,09,30,21.70
2020,08,05,09,31,21.80
2020,08,05,09,32,21.80
2020,08,05,09,33,21.80
2020,08,05,09,34,21.80
2020,08,05,09,35,21.80
2020,08,05,09,36,21.80
2020,08,05,09,37,21.90
2020,08,05,09,38,22.00
2020,08,05,09,39,22.10
2020,08,05,09,40,22.10
2020,08,05,09,41,22.20
2020,08,05,09,42,22.20
2020,08,05,09,43,22.30
2020,08,05,09,44,22.30
2020,08,05,09,45,22.30
2020,08,05,09,46,22.30
2020,08,05,09,47,22.30
2020,08,05,09,48,22.30
2020,08,05,09,49,22.30
2020,08,05,09,50,22.30
2020,08,05,09,51,22.30
2020,08,05,09,52,22.30
2020,08,05,09,53,22.30
2020,08,05,09,54,22.30
2020,08,05,09,55,22.40
2020,08,05,09,56,22.60
2020,08,05,09,57,22.70
2020,08,05,09,58,22.70
2020,08,05,09,59,22.70
2020,08,05,10,00,22.60
2020,08,05,10,01,22.60
2020,08,05,10,02,22.60
2020,08,05,10,03,22.60
2020,08,05,10,04,22.60
2020,08,05,10,05,22.70
2020,08,05,10,06,22.70
2020,08,05,10,07,22.70
2020,08,05,10,08,22.70
2020,08,05,10,09,22.70
2020,08,05,10,10,22.70
2020,08,05,10,11,22.80
2020,08,05,10,12,22.80
2020,08,05,10,13,22.80
2020,08,05,10,14,22.80
2020,08,05,10,15,22.80
2020,08,05,10,16,22.80
2020,08,05,10,17,22.80
2020,08,05,10,18,22.70
2020,08,05,10,19,22.70
2020,08,05,10,20,22.70
2020,08,05,10,21,22.80
2020,08,05,10,22,22.80
2020,08,05,10,23,22.80
2020,08,05,10,24,22.80
2020,08,05,10,25,22.80
2020,08,05,10,26,22.80
2020,08,05,10,27,22.80
2020,08,05,10,28,22.80
2020,08,05,10,29,22.90
2020,08,05,10,30,22.90
2020,08,05,10,31,23.00
2020,08,05,10,32,23.10
2020,08,05,10,33,23.20
2020,08,05,10,34,23.20
2020,08,05,10,35,23.20
2020,08,05,10,36,23.20
2020,08,05,10,37,23.20
2020,08,05,10,38,23.20
2020,08,05,10,39,23.10
2020,08,05,10,40,23.10
2020,08,05,10,41,23.00
2020,08,05,10,42,22.90
2020,08,05,10,43,22.90
2020,08,05,10,44,22.90
2020,08,05,10,45,22.90
2020,08,05,10,46,22.90
2020,08,05,10,47,22.90
2020,08,05,10,48,22.80
2020,08,05,10,49,22.80
2020,08,05,10,50,22.80
2020,08,05,10,51,22.80
2020,08,05,10,52,22.80
2020,08,05,10,53,22.80
2020,08,05,10,54,22.90
2020,08,05,10,55,23.00
2020,08,05,10,56,23.00
2020,08,05,10,57,23.00
2020,08,05,10,58,22.90
2020,08,05,10,59,22.80
2020,08,05,11,00,22.80
2020,08,05,11,01,22.70
2020,08,05,11,02,22.60
2020,08,05,11,03,22.50
2020,08,05,11,04,22.50
2020,08,05,11,05,22.50
2020,08,05,11,06,22.50
2020,08,05,11,07,22.50
2020,08,05,11,08,22.60
2020,08,05,11,09,22.60
2020,08,05,11,10,22.60
2020,08,05,11,11,22.60
2020,08,05,11,12,22.60
2020,08,05,11,13,22.60
2020,08,05,11,14,22.60
2020,08,05,11,15,22.60
2020,08,05,11,16,22.60
2020,08,05,11,17,22.60
2020,08,05,11,18,22.60
2020,08,05,11,19,22.60
2020,08,05,11,20,22.60
2020,08,05,11,21,22.60
2020,08,05,11,22,22.50
2020,08,05,11,23,22.40
2020,08,05,11,24,22.40
2020,08,05,11,25,22.40
2020,08,05,11,26,22.50
2020,08,05,11,27,22.60
2020,08,05,11,28,22.60
2020,08,05,11,29,22.60
2020,08,05,11,30,22.60
2020,08,05,11,31,22.60
2020,08,05,11,32,22.60
2020,08,05,11,33,22.70
2020,08,05,11,34,22.70
2020,08,05,11,35,22.80
2020,08,05,11,36,22.90
2020,08,05,11,37,22.90
2020,08,05,11,38,22.90
2020,08,05,11,39,23.00
2020,08,05,11,40,23.00
2020,08,05,11,41,23.10
2020,08,05,11,42,23.10
2020,08,05,11,43,23.20
2020,08,05,11,44,23.30
2020,08,05,11,45,23.30
2020,08,05,11,46,23.20
2020,08,05,11,47,23.20
2020,08,05,11,48,23.10
2020,08,05,11,49,23.00
2020,08,05,11,50,23.10
2020,08,05,11,51,23.00
2020,08,05,11,52,23.00
2020,08,05,11,53,23.00
2020,08,05,11,54,23.00
2020,08,05,11,55,23.00
2020,08,05,11,56,23.10
2020,08,05,11,57,23.00
2020,08,05,11,58,23.00
2020,08,05,11,59,23.00
2020,08,05,12,00,23.00
2020,08,05,12,01,23.10
2020,08,05,12,02,23.20
2020,08,05,12,03,23.20
2020,08,05,12,04,23.20
2020,08,05,12,05,23.20
2020,08,05,12,06,23.20
2020,08,05,12,07,23.20
2020,08,05,12,08,23.20
2020,08,05,12,09,23.30
2020,08,05,12,10,23.30
2020,08,05,12,11,23.30
2020,08,05,12,12,23.30
2020,08,05,12,13,23.30
2020,08,05,12,14,23.30
2020,08,05,12,15,23.30
2020,08,05,12,16,23.30
2020,08,05,12,17,23.40
2020,08,05,12,18,23.40
2020,08,05,12,19,23.50
2020,08,05,12,20,23.60
2020,08,05,12,21,23.60
2020,08,05,12,22,23.60
2020,08,05,12,23,23.60
2020,08,05,12,24,23.70
2020,08,05,12,25,23.70
2020,08,05,12,26,23.70
2020,08,05,12,27,23.80
2020,08,05,12,28,23.90
2020,08,05,12,29,23.90
2020,08,05,12,30,23.80
2020,08,05,12,31,23.80
2020,08,05,12,32,23.80
2020,08,05,12,33,23.80
2020,08,05,12,34,23.70
2020,08,05,12,35,23.70
2020,08,05,12,36,23.70
2020,08,05,12,37,23.70
2020,08,05,12,38,23.60
2020,08,05,12,39,23.60
2020,08,05,12,40,23.60
2020,08,05,12,41,23.70
2020,08,05,12,42,23.70
2020,08,05,12,43,23.80
2020,08,05,12,44,23.80
2020,08,05,12,45,23.80
2020,08,05,12,46,23.80
2020,08,05,12,47,23.80
2020,08,05,12,48,23.80
2020,08,05,12,49,23.80
2020,08,05,12,50,23.90
2020,08,05,12,51,23.90
2020,08,05,12,52,23.90
2020,08,05,12,53,23.90
2020,08,05,12,54,23.80
2020,08,05,12,55,23.80
2020,08,05,12,56,23.90
2020,08,05,12,57,24.00
2020,08,05,12,58,24.00
2020,08,05,12,59,24.10
2020,08,05,13,00,24.10
2020,08,05,13,01,24.10
2020,08,05,13,02,24.10
2020,08,05,13,03,24.10
2020,08,05,13,04,24.10
2020,08,05,13,05,24.10
2020,08,05,13,06,24.10
2020,08,05,13,07,24.10
2020,08,05,13,08,24.10
2020,08,05,13,09,24.10
2020,08,05,13,10,24.20
2020,08,05,13,11,24.30
2020,08,05,13,12,24.20
2020,08,05,13,13,24.20
2020,08,05,13,14,24.20
2020,08,05,13,15,24.30
2020,08,05,13,16,24.30
2020,08,05,13,17,24.30
2020,08,05,13,18,24.30
2020,08,05,13,19,24.30
2020,08,05,13,20,24.20
2020,08,05,13,21,24.20
2020,08,05,13,22,24.30
2020,08,05,13,23,24.40
2020,08,05,13,24,24.40
2020,08,05,13,25,24.50
2020,08,05,13,26,24.60
2020,08,05,13,27,24.70
2020,08,05,13,28,24.70
2020,08,05,13,29,24.70
2020,08,05,13,30,24.60
2020,08,05,13,31,24.50
2020,08,05,13,32,24.40
2020,08,05,13,33,24.40
2020,08,05,13,34,24.40
2020,08,05,13,35,24.40
2020,08,05,13,36,24.40
2020,08,05,13,37,24.40
2020,08,05,13,38,24.40
2020,08,05,13,39,24.40
2020,08,05,13,40,24.40
2020,08,05,13,41,24.40
2020,08,05,13,42,24.50
2020,08,05,13,43,24.60
2020,08,05,13,44,24.70
2020,08,05,13,45,24.70
2020,08,05,13,46,24.70
2020,08,05,13,47,24.70
2020,08,05,13,48,24.80
2020,08,05,13,49,24.80
2020,08,05,13,50,24.80
2020,08,05,13,51,24.70
2020,08,05,13,52,24.70
2020,08,05,13,53,24.70
2020,08,05,13,54,24.60
2020,08,05,13,55,24.60
2020,08,05,13,56,24.70
2020,08,05,13,57,24.70
2020,08,05,13,58,24.70
2020,08,05,13,59,24.70
2020,08,05,14,00,24.70
2020,08,05,14,01,24.60
2020,08,05,14,02,24.60
2020,08,05,14,03,24.60
2020,08,05,14,04,24.60
2020,08,05,14,05,24.70
2020,08,05,14,06,24.70
2020,08,05,14,07,24.80
2020,08,05,14,08,24.70
2020,08,05,14,09,24.70
2020,08,05,14,10,24.70
2020,08,05,14,11,24.70
2020,08,05,14,12,24.70
2020,08,05,14,13,24.70
2020,08,05,14,14,24.60
2020,08,05,14,15,24.70
2020,08,05,14,16,24.70
2020,08,05,14,17,24.70
2020,08,05,14,18,24.70
2020,08,05,14,19,24.70
2020,08,05,14,20,24.70
2020,08,05,14,21,24.70
2020,08,05,14,22,24.70
2020,08,05,14,23,24.80
2020,08,05,14,24,24.80
2020,08,05,14,25,24.80
2020,08,05,14,26,24.80
2020,08,05,14,27,24.70
2020,08,05,14,28,24.80
2020,08,05,14,29,24.80
2020,08,05,14,30,24.80
2020,08,05,14,31,24.80
2020,08,05,14,32,24.80
2020,08,05,14,33,24.90
2020,08,05,14,34,25.00
2020,08,05,14,35,25.00
2020,08,05,14,36,24.90
2020,08,05,14,37,24.90
2020,08,05,14,38,24.90
2020,08,05,14,39,24.90
2020,08,05,14,40,24.90
2020,08,05,14,41,24.80
2020,08,05,14,42,24.80
2020,08,05,14,43,24.80
2020,08,05,14,44,24.90
2020,08,05,14,45,24.90
2020,08,05,14,46,24.80
2020,08,05,14,47,24.80
2020,08,05,14,48,24.90
2020,08,05,14,49,25.00
2020,08,05,14,50,25.00
2020,08,05,14,51,25.00
2020,08,05,14,52,25.00
2020,08,05,14,53,24.90
2020,08,05,14,54,24.90
2020,08,05,14,55,24.90
2020,08,05,14,56,24.80
2020,08,05,14,57,24.80
2020,08,05,14,58,24.60
2020,08,05,14,59,24.50
2020,08,05,15,00,24.40
2020,08,05,15,01,24.40
2020,08,05,15,02,24.40
2020,08,05,15,03,24.50
2020,08,05,15,04,24.60
2020,08,05,15,05,24.60
2020,08,05,15,06,24.60
2020,08,05,15,07,24.60
2020,08,05,15,08,24.70
2020,08,05,15,09,24.70
2020,08,05,15,10,24.70
2020,08,05,15,11,24.70
2020,08,05,15,12,24.80
2020,08,05,15,13,24.90
2020,08,05,15,14,24.90
2020,08,05,15,15,25.00
2020,08,05,15,16,25.00
2020,08,05,15,17,25.10
2020,08,05,15,18,25.00
2020,08,05,15,19,24.90
2020,08,05,15,20,24.80
2020,08,05,15,21,24.80
2020,08,05,15,22,24.70
2020,08,05,15,23,24.70
2020,08,05,15,24,24.70
2020,08,05,15,25,24.70
2020,08,05,15,26,24.70
2020,08,05,15,27,24.70
2020,08,05,15,28,24.70
2020,08,05,15,29,24.70
2020,08,05,15,30,24.70
2020,08,05,15,31,24.70
2020,08,05,15,32,24.70
2020,08,05,15,33,24.70
2020,08,05,15,34,24.70
2020,08,05,15,35,24.70
2020,08,05,15,36,24.70
2020,08,05,15,37,24.60
2020,08,05,15,38,24.60
2020,08,05,15,39,24.60
2020,08,05,15,40,24.50
2020,08,05,15,41,24.50
2020,08,05,15,42,24.40
2020,08,05,15,43,24.40
2020,08,05,15,44,24.30
2020,08,05,15,45,24.20
2020,08,05,15,46,24.30
2020,08,05,15,47,24.30
2020,08,05,15,48,24.30
2020,08,05,15,49,24.20
2020,08,05,15,50,24.20
2020,08,05,15,51,24.20
2020,08,05,15,52,24.20
2020,08,05,15,53,24.10
2020,08,05,15,54,24.10
2020,08,05,15,55,24.00
2020,08,05,15,56,24.00
2020,08,05,15,57,24.00
2020,08,05,15,58,23.90
2020,08,05,15,59,23.90
2020,08,05,16,00,23.90
2020,08,05,16,01,23.90
2020,08,05,16,02,23.90
2020,08,05,16,03,23.80
2020,08,05,16,04,23.80
2020,08,05,16,05,23.80
2020,08,05,16,06,23.80
2020,08,05,16,07,23.80
2020,08,05,16,08,23.80
2020,08,05,16,09,23.80
2020,08,05,16,10,23.70
2020,08,05,16,11,23.70
2020,08,05,16,12,23.70
2020,08,05,16,13,23.70
2020,08,05,16,14,23.70
2020,08,05,16,15,23.70
2020,08,05,16,16,23.60
2020,08,05,16,17,23.60
2020,08,05,16,18,23.60
2020,08,05,16,19,23.60
2020,08,05,16,20,23.60
2020,08,05,16,21,23.60
2020,08,05,16,22,23.50
2020,08,05,16,23,23.50
2020,08,05,16,24,23.50
2020,08,05,16,25,23.50
2020,08,05,16,26,23.50
2020,08,05,16,27,23.50
2020,08,05,16,28,23.50
2020,08,05,16,29,23.50
2020,08,05,16,30,23.60
2020,08,05,16,31,23.60
2020,08,05,16,32,23.70
2020,08,05,16,33,23.70
2020,08,05,16,34,23.70
2020,08,05,16,35,23.70
2020,08,05,16,36,23.70
2020,08,05,16,37,23.80
2020,08,05,16,38,23.90
2020,08,05,16,39,24.00
2020,08,05,16,40,24.10
2020,08,05,16,41,24.10
2020,08,05,16,42,24.20
2020,08,05,16,43,24.30
2020,08,05,16,44,24.30
2020,08,05,16,45,24.40
2020,08,05,16,46,24.50
2020,08,05,16,47,24.60
2020,08,05,16,48,24.60
2020,08,05,16,49,24.60
2020,08,05,16,50,24.70
2020,08,05,16,51,24.70
2020,08,05,16,52,24.70
2020,08,05,16,53,24.70
2020,08,05,16,54,24.70
2020,08,05,16,55,24.70
2020,08,05,16,56,24.70
2020,08,05,16,57,24.70
2020,08,05,16,58,24.70
2020,08,05,16,59,24.70
2020,08,05,17,00,24.80
2020,08,05,17,01,24.80
2020,08,05,17,02,24.80
2020,08,05,17,03,24.80
2020,08,05,17,04,24.90
2020,08,05,17,05,24.80
2020,08,05,17,06,24.80
2020,08,05,17,07,24.80
2020,08,05,17,08,24.80
2020,08,05,17,09,24.80
2020,08,05,17,10,24.80
2020,08,05,17,11,24.90
2020,08,05,17,12,24.90
2020,08,05,17,13,24.90
2020,08,05,17,14,24.90
2020,08,05,17,15,25.00
2020,08,05,17,16,25.00
2020,08,05,17,17,25.10
2020,08,05,17,18,25.10
2020,08,05,17,19,25.10